Location: Smoky Mountain Stargaze
(35.4252°N, 83.3329°W)
Time: 17:46:24
(UTC-05:00)

Amateur Radio Satellites - All Passes

Search period start: 27 February 2017 17:16
Search period end: 28 February 2017 17:16
Location: Smoky Mountain Stargaze, 35.4252°N, 83.3329°W

Satellite Date Start Highest point End Downlink Frequencies (MHz)
Time Altitude Azimuth
CUBESAT XI-V 27 Feb 17:22:45 17:27:22 86° 104° (ESE) 17:31:57 437.345
NO-84 27 Feb 17:30:35 17:32:38 15° 327° (NNW) 17:34:47 435.350 FM
KAITUO 1B 27 Feb 17:31:42 17:34:55 26° 72° (ENE) 17:38:08 145.475/437.950
XW-2F 27 Feb 17:40:14 17:43:51 41° 74° (ENE) 17:47:29 145.980 - 146.000
CUTE-I 27 Feb 17:44:49 17:49:58 52° 72° (ENE) 17:55:09 437.470
XW-2D 27 Feb 17:46:18 17:50:02 54° 76° (ENE) 17:53:49 145.860 - 145.880
XW-2B 27 Feb 17:51:22 17:55:09 61° 75° (ENE) 17:58:58 145.730 - 145.750
XW-2C 27 Feb 18:00:03 18:03:54 82° 77° (ENE) 18:07:47 145.795 - 145.815
NUDT-PHONESAT 27 Feb 18:02:55 18:06:39 71° 76° (ENE) 18:10:26 437.300
KKS-1 27 Feb 18:07:25 18:10:34 19° 292° (WNW) 18:13:42 437.445
M-CUBED/EXP-1 PRIME 27 Feb 18:09:06 18:13:03 86° 104° (ESE) 18:17:18 437.505
LilacSat-2 27 Feb 18:19:46 18:23:32 50° 260° (W) 18:27:19 437.200
HO-68 27 Feb 18:20:56 18:27:01 31° 64° (ENE) 18:33:06 435.675
STARS 27 Feb 18:34:07 18:37:29 21° 292° (WNW) 18:40:50 437.465
DOVE 4 27 Feb 18:34:12 18:37:58 34° 262° (W) 18:41:47 437.250
XW-2A 27 Feb 18:36:21 18:39:16 27° 72° (ENE) 18:42:11 145.665 - 145.685
STRAND 1 27 Feb 18:50:04 18:53:13 16° 93° (E) 18:56:19 437.568
CUBEBUG 2 27 Feb 18:51:31 18:54:00 15° 66° (ENE) 18:56:30 437.445
SEEDS 27 Feb 18:58:00 19:01:26 24° 71° (ENE) 19:04:50 437.485
RS-15 27 Feb 19:00:32 19:11:38 42° 313° (NW) 19:23:10 29.354- 29.394
KAITUO 1B 27 Feb 19:06:26 19:08:55 17° 266° (W) 19:11:25 145.475/437.950
XW-2F 27 Feb 19:17:14 19:18:10 11° 268° (W) 19:19:06 145.980 - 146.000
UWE-3 27 Feb 19:22:32 19:25:48 20° 68° (ENE) 19:29:07 435.000/436.395/437.385
CUTE-I 27 Feb 19:26:57 19:30:16 17° 267° (W) 19:33:36 437.470
ZACube-1 27 Feb 19:38:01 19:40:58 17° 67° (ENE) 19:43:56 437.345
CUTE 1.7 + AOD 2 27 Feb 19:40:20 19:44:35 64° 260° (W) 19:48:49 437.475
HO-68 27 Feb 20:07:39 20:14:27 45° 260° (W) 20:21:17 435.675
XW-2A 27 Feb 20:10:34 20:12:04 12° 266° (W) 20:13:34 145.665 - 145.685
AAUSAT CUBESAT 2 27 Feb 20:14:03 20:18:13 84° 261° (W) 20:22:22 437.432
AO-73 27 Feb 20:23:18 20:27:36 50° 74° (ENE) 20:32:01 145.935
CUBEBUG 2 27 Feb 20:25:52 20:30:07 46° 261° (W) 20:34:33 437.445
Oscar 11 27 Feb 20:26:53 20:31:03 47° 74° (ENE) 20:35:15 .
STRAND 1 27 Feb 20:27:39 20:32:38 50° 287° (WNW) 20:37:34 437.568
SEEDS 27 Feb 20:33:38 20:37:00 23° 264° (W) 20:40:23 437.485
SO-50 27 Feb 20:48:26 20:51:51 20° 110° (ESE) 20:55:15 436.795
JUGNU 27 Feb 20:50:25 20:53:41 15° 173° (S) 20:56:56 437.505
UWE-3 27 Feb 20:57:58 21:01:58 33° 263° (W) 21:06:06 435.000/436.395/437.385
YUBILEINY 27 Feb 21:11:47 21:20:04 45° 77° (ENE) 21:28:16 435.215
ZACube-1 27 Feb 21:12:45 21:16:53 38° 262° (W) 21:21:08 437.345
RS-15 27 Feb 21:22:08 21:29:02 16° 345° (NNW) 21:35:59 29.354- 29.394
DELFI C3 27 Feb 21:23:09 21:27:04 65° 76° (ENE) 21:30:58 145.870
O/OREOS (USA 219) 27 Feb 21:27:18 21:30:03 16° 100° (E) 21:32:49 437.305
TIGRISAT 27 Feb 21:36:23 21:38:53 14° 92° (E) 21:41:21 435.000
UNISAT 6 27 Feb 21:36:39 21:39:28 16° 93° (E) 21:42:14 437.425
FO-29 27 Feb 21:56:36 22:01:16 18° 88° (E) 22:05:37 435.910
SRMSAT 27 Feb 21:57:25 21:58:06 10° 165° (SSE) 21:58:47 437.500
AO-73 27 Feb 22:02:14 22:04:06 12° 269° (W) 22:06:00 145.935
Oscar 11 27 Feb 22:05:37 22:07:24 12° 268° (W) 22:09:12 .
PRISM 27 Feb 22:11:24 22:15:29 81° 284° (WNW) 22:19:35 437.425
SO-50 27 Feb 22:27:40 22:32:03 38° 305° (NW) 22:36:23 436.795
NO-84 27 Feb 22:28:42 22:30:51 14° 32° (NNE) 22:33:05 435.350 FM
JUGNU 27 Feb 22:38:21 22:41:55 17° 183° (S) 22:45:30 437.505
ESTCUBE 1 27 Feb 22:50:33 22:54:47 41° 73° (ENE) 22:59:01 437.505/2401.250
LO-87 27 Feb 22:50:55 22:54:26 89° 264° (W) 22:58:00 145.935 - 145.965
SPROUT 27 Feb 22:55:03 22:55:36 10° 65° (ENE) 22:56:09 437.525
O/OREOS (USA 219) 27 Feb 23:04:55 23:09:04 37° 295° (WNW) 23:13:16 437.305
VELOX 1 27 Feb 23:05:12 23:08:13 19° 68° (ENE) 23:11:15 145.980
YUBILEINY 27 Feb 23:09:00 23:16:31 34° 274° (W) 23:24:01 435.215
50 SAT 27 Feb 23:11:13 23:11:29 10° 67° (ENE) 23:11:45 437.505
TIGRISAT 27 Feb 23:11:16 23:15:47 47° 287° (WNW) 23:20:12 435.000
UNISAT 6 27 Feb 23:11:54 23:16:20 43° 287° (WNW) 23:20:42 437.425
DUCHIFAT 1 27 Feb 23:24:05 23:26:30 15° 93° (E) 23:28:56 145.980
EO-79 27 Feb 23:37:11 23:40:48 26° 96° (E) 23:44:23 145.935-145.965
FO-29 27 Feb 23:39:33 23:47:01 72° 287° (WNW) 23:53:39 435.910
RS-15 27 Feb 23:40:52 23:48:56 19° 23° (NNE) 23:56:51 29.354- 29.394
SRMSAT 27 Feb 23:42:52 23:46:29 16° 175° (S) 23:50:06 437.500
AIST 2D 27 Feb 23:45:12 23:48:44 61° 100° (E) 23:52:13 435.315
PCSat 27 Feb 23:45:26 23:46:58 11° 45° (NE) 23:48:29 145.827
NANOSAT C BR1 27 Feb 23:52:06 23:56:03 36° 98° (E) 23:59:58 145.865
POLYITAN 1 27 Feb 23:55:13 23:59:20 43° 99° (E) 00:03:24 437.675
QB50P2 27 Feb 23:58:15 00:02:27 52° 100° (E) 00:06:36 145.880/145.840
NO-84 28 Feb 00:04:53 00:09:02 82° 45° (NE) 00:13:26 435.350 FM
BUGSAT 1 28 Feb 00:09:26 00:12:11 17° 94° (E) 00:14:54 437.445
DX 1 28 Feb 00:22:10 00:26:24 60° 75° (ENE) 00:30:41 434.975-435.025
SPROUT 28 Feb 00:26:46 00:30:57 60° 260° (W) 00:35:11 437.525
JUGNU 28 Feb 00:28:19 00:30:09 11° 193° (SSW) 00:32:00 437.505
UKube-1 28 Feb 00:28:37 00:32:46 49° 74° (ENE) 00:36:55 .
ESTCUBE 1 28 Feb 00:29:04 00:31:44 15° 267° (W) 00:34:23 437.505/2401.250
VELOX 1 28 Feb 00:40:27 00:44:25 33° 262° (W) 00:48:22 145.980
Oscar 19 28 Feb 00:40:36 00:40:47 10° 91° (E) 00:40:58 437.125/150
50 SAT 28 Feb 00:40:56 00:44:12 37° 261° (W) 00:47:28 437.505
DUCHIFAT 1 28 Feb 00:58:20 01:02:18 38° 287° (WNW) 01:06:13 145.980
EO-79 28 Feb 01:13:04 01:16:23 22° 291° (WNW) 01:19:42 145.935-145.965
PCSat 28 Feb 01:25:47 01:31:15 77° 63° (ENE) 01:36:39 145.827
FO-29 28 Feb 01:27:55 01:30:30 12° 305° (NW) 01:33:02 435.910
NANOSAT C BR1 28 Feb 01:28:45 01:31:26 16° 292° (WNW) 01:34:06 145.865
SRMSAT 28 Feb 01:31:15 01:34:55 17° 185° (S) 01:38:35 437.500
POLYITAN 1 28 Feb 01:32:27 01:34:41 14° 294° (WNW) 01:36:55 437.675
QB50P2 28 Feb 01:36:06 01:37:44 12° 294° (WNW) 01:39:21 145.880/145.840
ITUPSAT 1 28 Feb 01:39:48 01:43:16 20° 67° (ENE) 01:46:45 437.325
BUGSAT 1 28 Feb 01:43:44 01:47:35 34° 288° (WNW) 01:51:25 437.445
BEESAT 28 Feb 01:44:09 01:47:51 23° 68° (ENE) 01:51:34 436.000
Gurwin Techsat 1B 28 Feb 01:44:42 01:49:15 28° 96° (E) 01:53:47 435.225
NO-84 28 Feb 01:45:11 01:46:19 11° 239° (WSW) 01:47:27 435.350 FM
RS-15 28 Feb 01:53:13 02:05:14 55° 53° (NE) 02:16:41 29.354- 29.394
UKube-1 28 Feb 02:07:35 02:09:02 11° 267° (W) 02:10:29 .
Oscar 19 28 Feb 02:15:27 02:20:34 75° 285° (WNW) 02:25:41 437.125/150
AO-85 28 Feb 02:32:19 02:34:25 13° 109° (ESE) 02:36:28 145.980
AO-7 28 Feb 02:43:18 02:48:28 18° 93° (E) 02:53:34 .
ITAMSAT 1 28 Feb 02:56:21 03:00:28 23° 95° (E) 03:04:32 435.822/435.867
PCSat 28 Feb 03:12:17 03:13:53 11° 258° (WSW) 03:15:30 145.827
MOZHAYETS 4 28 Feb 03:15:08 03:19:45 73° 76° (ENE) 03:24:24
ITUPSAT 1 28 Feb 03:16:22 03:20:48 37° 261° (W) 03:25:17 437.325
BEESAT 28 Feb 03:21:08 03:25:24 32° 262° (W) 03:29:42 436.000
SRMSAT 28 Feb 03:22:05 03:23:19 11° 195° (SSW) 03:24:32 437.500
Gurwin Techsat 1B 28 Feb 03:24:29 03:29:07 31° 291° (WNW) 03:33:43 435.225
KKS-1 28 Feb 03:25:43 03:29:07 22° 68° (ENE) 03:32:32 437.445
STARS 28 Feb 03:51:46 03:54:47 19° 67° (ENE) 03:57:49 437.465
RS-15 28 Feb 04:06:18 04:17:20 43° 253° (WSW) 04:27:56 29.354- 29.394
AO-85 28 Feb 04:09:57 04:14:28 54° 301° (WNW) 04:18:41 145.980
CUBESAT XI-V 28 Feb 04:22:38 04:27:12 58° 75° (ENE) 04:31:46 437.345
AO-7 28 Feb 04:33:37 04:41:57 82° 290° (WNW) 04:50:13 .
ITAMSAT 1 28 Feb 04:35:11 04:39:57 37° 290° (WNW) 04:44:42 435.822/435.867
M-CUBED/EXP-1 PRIME 28 Feb 04:53:10 04:56:22 58° 71° (ENE) 04:59:35 437.505
KKS-1 28 Feb 05:01:42 05:05:29 28° 263° (W) 05:09:19 437.445
BEESAT 3 28 Feb 05:08:30 05:11:59 33° 113° (ESE) 05:15:33 437.485
STARS 28 Feb 05:26:54 05:30:51 33° 262° (W) 05:34:50 437.465
XW-2C 28 Feb 05:38:25 05:39:10 10° 92° (E) 05:39:54 145.795 - 145.815
Tancredo 1 28 Feb 05:38:57 05:40:24 12° 127° (SE) 05:41:51 437.200
BEESAT 2 28 Feb 05:53:21 05:57:04 42° 115° (ESE) 06:00:51 435.950
LilacSat-2 28 Feb 05:56:40 05:59:33 20° 95° (E) 06:02:23 437.200
STRAND 1 28 Feb 06:03:09 06:06:34 18° 65° (ENE) 06:09:58 437.568
CUBESAT XI-V 28 Feb 06:03:22 06:04:53 11° 269° (W) 06:06:24 437.345
CUTE-I 28 Feb 06:05:24 06:09:54 27° 96° (E) 06:14:23 437.470
AO-7 28 Feb 06:28:49 06:33:27 16° 307° (NW) 06:38:05 .
DOVE 4 28 Feb 06:34:20 06:39:12 73° 101° (ESE) 06:44:19 437.250
KAITUO 1B 28 Feb 06:39:16 06:42:59 57° 101° (E) 06:46:38 145.475/437.950
BEESAT 3 28 Feb 06:46:56 06:49:40 18° 309° (NW) 06:52:26 437.485
XW-2F 28 Feb 06:49:14 06:53:03 83° 280° (W) 06:56:48 145.980 - 146.000
ISS 28 Feb 06:55:17 06:58:34 84° 318° (NW) 07:01:53 437.550
XW-2D 28 Feb 06:55:53 06:59:40 62° 283° (WNW) 07:03:23 145.860 - 145.880
XW-2B 28 Feb 07:01:02 07:04:47 55° 284° (WNW) 07:08:28 145.730 - 145.750
SO-50 28 Feb 07:01:28 07:05:59 80° 62° (ENE) 07:10:26 436.795
XW-2C 28 Feb 07:09:56 07:13:33 41° 286° (WNW) 07:17:06 145.795 - 145.815
NUDT-PHONESAT 28 Feb 07:10:24 07:14:03 50° 285° (WNW) 07:17:39 437.300
Tancredo 1 28 Feb 07:13:10 07:16:20 48° 322° (NW) 07:19:30 437.200
CUTE 1.7 + AOD 2 28 Feb 07:28:39 07:32:12 26° 96° (E) 07:35:43 437.475
LilacSat-2 28 Feb 07:30:43 07:33:43 22° 289° (WNW) 07:36:42 437.200
BEESAT 2 28 Feb 07:32:41 07:35:02 15° 311° (NW) 07:37:25 435.950
XW-2A 28 Feb 07:33:26 07:36:46 44° 99° (E) 07:40:04 145.665 - 145.685
HO-68 28 Feb 07:38:24 07:45:08 42° 99° (E) 07:51:48 435.675
O/OREOS (USA 219) 28 Feb 07:39:04 07:42:32 21° 61° (ENE) 07:45:58 437.305
STRAND 1 28 Feb 07:40:22 07:45:18 48° 260° (W) 07:50:17 437.568
CUTE-I 28 Feb 07:45:08 07:49:54 33° 291° (WNW) 07:54:39 437.470
AAUSAT CUBESAT 2 28 Feb 08:00:08 08:02:59 18° 94° (E) 08:05:48 437.432
DOVE 4 28 Feb 08:14:47 08:16:20 11° 295° (WNW) 08:17:54 437.250
AO-73 28 Feb 08:16:23 08:18:17 12° 91° (E) 08:20:11 145.935
SEEDS 28 Feb 08:19:21 08:23:31 71° 101° (E) 08:27:39 437.485
CUBEBUG 2 28 Feb 08:19:29 08:24:05 47° 99° (E) 08:28:33 437.445
Oscar 11 28 Feb 08:19:40 08:20:44 11° 91° (E) 08:21:49 .
ISS 28 Feb 08:34:00 08:35:28 12° 335° (NNW) 08:36:57 437.550
UWE-3 28 Feb 08:50:03 08:54:40 64° 100° (E) 08:59:10 435.000/436.395/437.385
PRISM 28 Feb 08:57:30 09:01:22 44° 74° (ENE) 09:05:15 437.425
ZACube-1 28 Feb 09:03:50 09:08:15 51° 99° (E) 09:12:33 437.345
CUTE 1.7 + AOD 2 28 Feb 09:04:41 09:07:52 21° 290° (WNW) 09:11:02 437.475
O/OREOS (USA 219) 28 Feb 09:17:52 09:21:58 33° 256° (WSW) 09:26:04 437.305
HO-68 28 Feb 09:26:25 09:32:37 33° 295° (WNW) 09:38:47 435.675
AAUSAT CUBESAT 2 28 Feb 09:34:53 09:38:26 28° 288° (WNW) 09:41:58 437.432
FO-29 28 Feb 09:46:35 09:53:13 41° 67° (ENE) 10:00:21 435.910
AO-73 28 Feb 09:50:26 09:54:46 49° 286° (WNW) 09:59:01 145.935
Oscar 11 28 Feb 09:52:56 09:57:08 52° 286° (WNW) 10:01:19 .
CUBEBUG 2 28 Feb 09:57:25 10:00:13 16° 294° (WNW) 10:03:01 437.445
TIGRISAT 28 Feb 10:06:08 10:10:37 81° 256° (WSW) 10:15:16 435.000
UNISAT 6 28 Feb 10:06:53 10:11:22 73° 258° (WSW) 10:16:00 437.425
YUBILEINY 28 Feb 10:08:16 10:16:50 59° 91° (E) 10:25:23 435.215
AIST 2D 28 Feb 10:18:03 10:19:59 14° 69° (ENE) 10:21:55 435.315
EO-79 28 Feb 10:27:53 10:30:03 14° 66° (ENE) 10:32:15 145.935-145.965
UWE-3 28 Feb 10:29:00 10:30:29 11° 296° (WNW) 10:31:58 435.000/436.395/437.385
PRISM 28 Feb 10:35:29 10:36:51 11° 267° (W) 10:38:12 437.425
DELFI C3 28 Feb 10:37:55 10:41:42 46° 285° (WNW) 10:45:27 145.870
ZACube-1 28 Feb 10:41:53 10:44:00 13° 295° (WNW) 10:46:07 437.345
NANOSAT C BR1 28 Feb 10:41:53 10:44:49 19° 68° (ENE) 10:47:45 145.865
POLYITAN 1 28 Feb 10:45:11 10:48:29 22° 69° (ENE) 10:51:48 437.675
QB50P2 28 Feb 10:48:05 10:51:35 26° 70° (ENE) 10:55:07 145.880/145.840
ESTCUBE 1 28 Feb 10:48:40 10:49:39 11° 91° (E) 10:50:38 437.505/2401.250
FO-29 28 Feb 11:31:41 11:38:08 37° 265° (W) 11:45:10 435.910
DUCHIFAT 1 28 Feb 11:46:20 11:50:31 81° 258° (WSW) 11:54:46 145.980
AIST 2D 28 Feb 11:49:52 11:52:55 27° 263° (W) 11:56:01 435.315
Oscar 19 28 Feb 11:53:28 11:55:34 12° 63° (ENE) 11:57:39 437.125/150
LO-87 28 Feb 11:54:16 11:57:43 43° 285° (WNW) 12:01:10 145.935 - 145.965
EO-79 28 Feb 12:01:24 12:05:24 42° 261° (W) 12:09:27 145.935-145.965
YUBILEINY 28 Feb 12:06:54 12:14:03 27° 289° (WNW) 12:21:13 435.215
50 SAT 28 Feb 12:09:27 12:11:36 16° 95° (E) 12:13:45 437.505
DX 1 28 Feb 12:15:02 12:17:05 13° 93° (E) 12:19:10 434.975-435.025
SPROUT 28 Feb 12:15:47 12:19:30 28° 97° (E) 12:23:10 437.525
NANOSAT C BR1 28 Feb 12:16:33 12:20:16 31° 263° (W) 12:24:03 145.865
POLYITAN 1 28 Feb 12:20:35 12:24:07 25° 264° (W) 12:27:41 437.675
UKube-1 28 Feb 12:21:48 12:22:13 10° 92° (E) 12:22:38 .
ESTCUBE 1 28 Feb 12:22:22 12:26:46 57° 285° (WNW) 12:31:08 437.505/2401.250
QB50P2 28 Feb 12:24:01 12:27:18 22° 265° (W) 12:30:36 145.880/145.840
BUGSAT 1 28 Feb 12:29:40 12:33:42 76° 257° (WSW) 12:37:50 437.445
VELOX 1 28 Feb 12:32:50 12:37:11 55° 100° (E) 12:41:31 145.980
AO-85 28 Feb 12:44:02 12:47:49 46° 58° (ENE) 12:51:40 145.980
Gurwin Techsat 1B 28 Feb 13:02:45 13:07:28 34° 70° (ENE) 13:12:13 435.225
ISS 28 Feb 13:25:45 13:28:40 28° 35° (NE) 13:31:33 437.550
Oscar 19 28 Feb 13:29:06 13:34:14 71° 258° (WSW) 13:39:22 437.125/150
AO-7 28 Feb 13:39:25 13:45:16 22° 56° (NE) 13:51:06 .
50 SAT 28 Feb 13:41:54 13:44:40 22° 288° (WNW) 13:47:25 437.505
Tancredo 1 28 Feb 13:42:33 13:45:39 42° 38° (NE) 13:48:43 437.200
DX 1 28 Feb 13:49:18 13:53:27 45° 287° (WNW) 13:57:37 434.975-435.025
SPROUT 28 Feb 13:51:57 13:55:13 21° 291° (WNW) 13:58:28 437.525
UKube-1 28 Feb 13:54:18 13:58:32 56° 286° (WNW) 14:02:45 .
ITAMSAT 1 28 Feb 14:11:20 14:15:39 27° 68° (ENE) 14:19:58 435.822/435.867
VELOX 1 28 Feb 14:11:24 14:13:07 12° 295° (WNW) 14:14:51 145.980
BEESAT 2 28 Feb 14:15:22 14:17:01 12° 47° (NE) 14:18:39 435.950
PCSat 28 Feb 14:23:45 14:26:42 15° 104° (ESE) 14:29:38 145.827
AO-85 28 Feb 14:26:36 14:27:46 11° 251° (WSW) 14:28:56 145.980
Gurwin Techsat 1B 28 Feb 14:43:03 14:47:24 26° 264° (W) 14:51:47 435.225
ISS 28 Feb 15:02:21 15:05:01 23° 230° (SW) 15:07:41 437.550
BEESAT 3 28 Feb 15:05:00 15:09:01 80° 241° (WSW) 15:13:00 437.485
MOZHAYETS 4 28 Feb 15:14:02 15:17:31 21° 95° (E) 15:20:57
ITUPSAT 1 28 Feb 15:19:24 15:24:12 70° 102° (ESE) 15:28:57 437.325
Tancredo 1 28 Feb 15:19:51 15:21:37 14° 232° (SW) 15:23:22 437.200
NO-84 28 Feb 15:21:46 15:24:29 32° 127° (SE) 15:27:24 435.350 FM
BEESAT 28 Feb 15:23:34 15:28:22 80° 102° (ESE) 15:33:08 436.000
AO-7 28 Feb 15:28:43 15:37:06 80° 254° (WSW) 15:45:29 .
ITAMSAT 1 28 Feb 15:50:20 15:54:56 32° 263° (W) 15:59:35 435.822/435.867
BEESAT 2 28 Feb 15:51:10 15:55:10 61° 244° (WSW) 15:59:07 435.950
PCSat 28 Feb 16:04:09 16:09:29 61° 298° (WNW) 16:14:53 145.827
RS-15 28 Feb 16:12:02 16:22:55 45° 107° (ESE) 16:34:12 29.354- 29.394
CUBESAT XI-V 28 Feb 16:23:13 16:26:20 18° 94° (E) 16:29:26 437.345
MOZHAYETS 4 28 Feb 16:50:37 16:54:40 31° 289° (WNW) 16:58:39
KKS-1 28 Feb 16:54:43 16:59:11 67° 102° (ESE) 17:03:38 437.445
NO-84 28 Feb 16:59:57 17:02:13 18° 325° (NW) 17:04:37 435.350 FM
ITUPSAT 1 28 Feb 17:00:01 17:01:22 11° 297° (WNW) 17:02:43 437.325
